Weather History for Ocala, FL

Change the Weather History Date:

Sunday, March 3, 2013

  Actual Average Record
Temperature  
Mean Temperature 40 °F -  
Max Temperature 50 °F 72 °F 86 °F (2001)
Min Temperature 30 °F 48 °F 30 °F (2009)
Degree Days  
Heating Degree Days 25    
Moisture  
Dew Point 25 °F    
Average Humidity 58    
Maximum Humidity 80    
Minimum Humidity 35    
Precipitation  
Precipitation 0.00 in - - ()
Sea Level Pressure  
Sea Level Pressure 30.08 in    
Wind  
Wind Speed 4 mph (WNW)    
Max Wind Speed 15 mph    
Max Gust Speed 21 mph    
Visibility 10 miles    
Events      
Averages and records for this station are not official NWS values.
T = Trace of Precipitation, MM = Missing Value Source: NWS Daily Summary

Daily Weather History Graph

Daily Weather History Graph

Search for Another Location

Airport:

Trip Planner

Search our weather history database for the weather conditions in past years. The results will help you decide how hot, cold, wet, or windy it might be!

Date:

Astronomy

Mar. 03, 2013 Rise Set
Actual Time 6:51 AM EST 6:30 PM EST
Civil Twilight 6:28 AM EST 6:53 PM EST
Nautical Twilight 6:00 AM EST 7:21 PM EST
Astronomical Twilight 5:33 AM EST 7:48 PM EST
Moon No Moon Rise 10:36 AM EST (3/3)
Length of Visible Light 12h 25m
Length of Day
11h 38m
Waning Gibbous, 64% of the Moon is Illuminated
Mar 3
Waning Gibbous
Mar 4
Last Quarter
Mar 11
New
Mar 19
First Quarter
Mar 27
Full

Hourly Weather History & Observations

Time (EST) Temp. Windchill Dew Point Humidity Pressure Visibility Wind Dir Wind Speed Gust Speed Precip Events Conditions
12:15 AM 37.4 °F 34.9 °F 24.8 °F 60% 30.05 in 10.0 mi NNW 3.5 mph - N/A   Partly Cloudy
12:35 AM 35.6 °F - 24.8 °F 65% 30.05 in 10.0 mi Calm Calm - N/A   Clear
12:55 AM 35.6 °F - 24.8 °F 65% 30.05 in 10.0 mi Calm Calm - N/A   Clear
1:15 AM 37.4 °F 34.9 °F 24.8 °F 60% 30.06 in 10.0 mi West 3.5 mph - N/A   Mostly Cloudy
1:35 AM 37.4 °F - 24.8 °F 60% 30.05 in 10.0 mi Calm Calm - N/A   Overcast
1:55 AM 37.4 °F - 24.8 °F 60% 30.05 in 10.0 mi Calm Calm - N/A   Overcast
2:15 AM 37.4 °F 34.9 °F 24.8 °F 60% 30.05 in 10.0 mi WNW 3.5 mph - N/A   Scattered Clouds
2:35 AM 37.4 °F 33.8 °F 23.0 °F 56% 30.05 in 10.0 mi WNW 4.6 mph - N/A   Clear
2:55 AM 35.6 °F 30.7 °F 23.0 °F 60% 30.04 in 10.0 mi WNW 5.8 mph - N/A   Clear
3:15 AM 35.6 °F 30.7 °F 23.0 °F 60% 30.03 in 10.0 mi NW 5.8 mph - N/A   Clear
3:35 AM 35.6 °F 30.7 °F 23.0 °F 60% 30.04 in 10.0 mi NW 5.8 mph - N/A   Clear
3:55 AM 35.6 °F 31.7 °F 23.0 °F 60% 30.03 in 10.0 mi NNW 4.6 mph - N/A   Clear
4:15 AM 35.6 °F 31.7 °F 23.0 °F 60% 30.04 in 10.0 mi NW 4.6 mph - N/A   Scattered Clouds
4:35 AM 33.8 °F 29.6 °F 24.8 °F 70% 30.04 in 10.0 mi NW 4.6 mph - N/A   Scattered Clouds
4:55 AM 33.8 °F 30.8 °F 24.8 °F 70% 30.04 in 10.0 mi WNW 3.5 mph - N/A   Scattered Clouds
5:15 AM 35.6 °F 32.8 °F 24.8 °F 65% 30.05 in 10.0 mi WNW 3.5 mph - N/A   Overcast
5:35 AM 35.6 °F 32.8 °F 24.8 °F 65% 30.05 in 10.0 mi NW 3.5 mph - N/A   Overcast
5:55 AM 35.6 °F 30.7 °F 26.6 °F 70% 30.05 in 10.0 mi NW 5.8 mph - N/A   Overcast
6:15 AM 37.4 °F 32.8 °F 26.6 °F 65% 30.05 in 10.0 mi NNW 5.8 mph - N/A   Overcast
6:35 AM 37.4 °F 33.8 °F 26.6 °F 65% 30.06 in 10.0 mi NW 4.6 mph - N/A   Overcast
6:50 AM 37.4 °F 30.3 °F 26.6 °F 65% 30.07 in 10.0 mi North 10.4 mph - N/A   Overcast
7:50 AM 39.2 °F 32.5 °F 24.8 °F 56% 30.08 in 10.0 mi NNW 10.4 mph - N/A   Overcast
8:50 AM 41.0 °F 33.1 °F 24.8 °F 53% 30.09 in 10.0 mi NNW 15.0 mph 19.6 mph N/A   Mostly Cloudy
9:50 AM 44.6 °F 37.8 °F 23.0 °F 43% 30.10 in 10.0 mi NNW 15.0 mph - N/A   Mostly Cloudy
10:50 AM 46.4 °F 40.4 °F 24.8 °F 43% 30.10 in 10.0 mi NNW 13.8 mph 20.7 mph N/A   Overcast
11:50 AM 46.4 °F 41.1 °F 23.0 °F 40% 30.09 in 10.0 mi WNW 11.5 mph 20.7 mph N/A   Overcast
12:50 PM 46.4 °F 41.1 °F 24.8 °F 43% 30.07 in 10.0 mi SW 11.5 mph 17.3 mph N/A   Mostly Cloudy
1:50 PM 50.0 °F - 24.8 °F 37% 30.04 in 10.0 mi West 13.8 mph 19.6 mph N/A   Mostly Cloudy
2:50 PM 50.0 °F - 24.8 °F 37% 30.03 in 10.0 mi WNW 13.8 mph 20.7 mph N/A   Mostly Cloudy
4:50 PM 50.0 °F - 23.0 °F 35% 30.03 in 10.0 mi West 9.2 mph 16.1 mph N/A   Partly Cloudy
5:50 PM 48.2 °F - 23.0 °F 37% 30.05 in 10.0 mi West 11.5 mph 16.1 mph N/A   Clear
6:50 PM 44.6 °F 41.4 °F 23.0 °F 43% 30.09 in 10.0 mi WNW 5.8 mph - N/A   Clear
7:55 PM 42.8 °F 40.1 °F 24.8 °F 49% 30.12 in 10.0 mi West 4.6 mph - N/A   Clear
8:15 PM 41.0 °F 39.0 °F 24.8 °F 53% 30.12 in 10.0 mi West 3.5 mph - N/A   Clear
8:35 PM 39.2 °F 37.0 °F 24.8 °F 56% 30.13 in 10.0 mi West 3.5 mph - N/A   Clear
8:55 PM 39.2 °F 35.9 °F 24.8 °F 56% 30.14 in 10.0 mi West 4.6 mph - N/A   Clear
9:15 PM 39.2 °F 37.0 °F 24.8 °F 56% 30.15 in 10.0 mi WSW 3.5 mph - N/A   Clear
9:35 PM 37.4 °F 34.9 °F 24.8 °F 60% 30.15 in 10.0 mi WSW 3.5 mph - N/A   Clear
9:55 PM 37.4 °F - 24.8 °F 60% 30.16 in 10.0 mi Calm Calm - N/A   Clear
10:15 PM 35.6 °F - 24.8 °F 65% 30.16 in 10.0 mi Calm Calm - N/A   Clear
10:35 PM 33.8 °F - 24.8 °F 70% 30.17 in 10.0 mi Calm Calm - N/A   Clear
10:55 PM 32.0 °F - 24.8 °F 75% 30.17 in 10.0 mi Calm Calm - N/A   Clear
11:15 PM 32.0 °F - 24.8 °F 75% 30.18 in 10.0 mi Calm Calm - N/A   Clear
11:35 PM 30.2 °F - 24.8 °F 80% 30.18 in 10.0 mi Calm Calm - N/A   Clear
11:55 PM 30.2 °F - 24.8 °F 80% 30.18 in 10.0 mi Calm Calm - N/A   Clear